Regional Weather Roundup
Issued by NWS Bismarck, ND

Current Version | Previous Version | Text Only | Print | Product List | Glossary On
Versions: 1 2 3 4 5 6 7 8 9 10 11 12 13 14 15 16 17 18 19 20 21 22 23 24 25 26 27 28 29 30 31 32 33 34 35 36 37 38 39 40 41 42 43 44 45 46 47 48 49 50
858
ASUS43 KBIS 171510
RWRBIS

NWR BROADCAST TEXT
NATIONAL WEATHER SERVICE BISMARCK ND
1000 AM CDT SAT APR 17 2021

NOTE: "FAIR" INDICATES FEW OR NO CLOUDS BELOW 12,000 FEET WITH NO
SIGNIFICANT WEATHER AND/OR OBSTRUCTIONS TO VISIBILITY.


CITY           SKY/WX    TMP DP  RH WIND       PRES   REMARKS
WILLISTON      SUNNY     42  28  57 W8        30.21S
MINOT          SUNNY     45  28  51 W13       30.18F
MINOT AFB      NOT AVBL
BISMARCK       SUNNY     39  30  70 W6        30.22F
DICKINSON      SUNNY     38  28  67 W6        30.19F
GARRISON         N/A     44  30  57 NW12      30.20S
HETTINGER ARPT SUNNY     40  31  70 N7        30.22S
JAMESTOWN      MOSUNNY   43  31  62 W8        30.16F
CARRINGTON     FAIR      39  34  81 NW13      30.17F
HAZEN          FAIR      36  34  93 SW8       30.23F
MANDAN         SUNNY     39  36  87 NW8       30.21S
OAKES          FAIR      39  37  93 NW9       30.18S
RUGBY          FAIR      39  28  65 NW16      30.15F
STANLEY        FAIR      41  32  70 W12       30.19F
TIOGA          FAIR      39  32  75 W12       30.21F
WATFORD CITY   FAIR      37  30  75 SW6       30.23S
$$

CITY           SKY/WX    TMP DP  RH WIND       PRES   REMARKS
GRAND FORKS    SUNNY     45  27  49 W5        30.13F
GRAND FORKS AF SUNNY     47  33  58 NW5       30.13F
DEVILS LAKE    SUNNY     41  30  65 NW12      30.14F
FARGO          SUNNY     43  29  57 NW7       30.15F
CANDO          FAIR      41  32  70 NW7       30.15F
CAVALIER       FAIR      45  28  53 CALM      30.11F
GWINNER        SUNNY     43  39  87 NW9       30.17S
LANGDON        FAIR      41  37  87 NW12      30.11F
ROLLA          FAIR      45  25  45 NW16      30.12F
WALHALLA       FAIR      45  30  57 W6        30.11F
$$

CITY           SKY/WX    TMP DP  RH WIND       PRES   REMARKS
ABERDEEN       SUNNY     44  34  67 N10       30.19F
MOBRIDGE       SUNNY     40  30  67 NW7       30.18F
BUFFALO          N/A     40  26  57 E3        30.19F
RAPID CITY     MOSUNNY   37  29  72 N13       30.22S
GLASGOW        SUNNY     37  25  61 W5        30.23S
SIDNEY         SUNNY     35  26  69 S6        30.24S
WOLF POINT     SUNNY     36  25  64 SW5       30.24F
GLENDIVE       SUNNY     40  25  55 S5        30.23F
MILES CITY     SUNNY     37  25  61 W7        30.23F
BAKER          SUNNY     42  26  53 CALM      30.22S
$$

CITY           SKY/WX    TMP DP  RH WIND       PRES   REMARKS
BILLINGS       MOSUNNY   40  24  53 SW9       30.27S
GREAT FALLS    SUNNY     42  24  49 SW13      30.27S
REGINA         MOSUNNY   39  30  70 W7        30.15F
ESTEVAN        SUNNY     37  30  75 W7        30.18F
$$





USA.gov is the U.S. government's official web portal to all federal, state and local government web resources and services.